TimeEST,TemperatureF,Dew PointF,Humidity,Sea Level PressureIn,VisibilityMPH,Wind Direction,Wind SpeedMPH,Gust SpeedMPH,PrecipitationIn,Events,Conditions,WindDirDegrees,DateUTC
12:56 AM,29.1,27.1,92,29.95,2.0,West,10.4,-,N/A,,Overcast,260,2012-12-11 05:56:00
1:33 AM,30.2,28.4,93,29.92,3.0,West,10.4,-,N/A,,Overcast,260,2012-12-11 06:33:00
1:56 AM,30.0,28.0,92,29.95,3.0,West,10.4,-,N/A,,Overcast,270,2012-12-11 06:56:00
2:08 AM,30.2,28.4,93,29.93,3.0,WSW,10.4,-,0.00,,Overcast,250,2012-12-11 07:08:00
2:21 AM,30.2,28.4,93,29.93,2.5,West,10.4,-,0.00,,Overcast,260,2012-12-11 07:21:00
2:45 AM,30.2,28.4,93,29.94,2.0,West,10.4,-,0.00,Rain,Light Freezing Rain,270,2012-12-11 07:45:00
2:56 AM,30.0,28.0,92,29.97,1.8,West,9.2,-,0.00,Rain,Light Freezing Rain,260,2012-12-11 07:56:00
3:03 AM,30.2,28.4,93,29.94,1.8,West,10.4,-,0.00,Rain,Light Freezing Rain,260,2012-12-11 08:03:00
3:15 AM,30.2,28.4,93,29.94,2.0,West,10.4,-,0.00,Rain,Light Freezing Rain,260,2012-12-11 08:15:00
3:31 AM,30.2,28.4,93,29.95,2.5,West,11.5,-,0.00,Rain,Light Freezing Rain,270,2012-12-11 08:31:00
3:45 AM,30.2,28.4,93,29.95,2.5,West,11.5,-,0.00,,Overcast,260,2012-12-11 08:45:00
3:56 AM,30.0,28.0,92,29.99,3.0,West,12.7,-,0.00,,Overcast,270,2012-12-11 08:56:00
4:56 AM,30.0,27.1,89,30.01,3.0,West,12.7,-,0.00,,Overcast,260,2012-12-11 09:56:00
5:08 AM,30.2,26.6,86,29.98,3.0,West,10.4,-,0.00,,Overcast,260,2012-12-11 10:08:00
5:24 AM,30.2,26.6,86,29.98,4.0,West,12.7,-,0.00,,Overcast,260,2012-12-11 10:24:00
5:41 AM,30.2,26.6,86,29.99,5.0,West,10.4,-,0.00,,Overcast,260,2012-12-11 10:41:00
5:56 AM,30.0,27.1,89,30.02,5.0,West,6.9,-,0.00,,Overcast,280,2012-12-11 10:56:00
6:36 AM,30.2,26.6,86,30.00,4.0,West,10.4,-,0.00,,Overcast,280,2012-12-11 11:36:00
6:56 AM,30.0,27.1,89,30.04,4.0,West,8.1,-,0.00,,Overcast,280,2012-12-11 11:56:00
7:56 AM,30.0,26.1,85,30.07,5.0,West,8.1,-,0.00,,Overcast,270,2012-12-11 12:56:00
8:56 AM,30.0,26.1,85,30.10,4.0,West,6.9,-,0.00,,Overcast,280,2012-12-11 13:56:00
9:18 AM,30.2,24.8,80,30.07,4.0,West,8.1,-,0.00,,Overcast,270,2012-12-11 14:18:00
9:56 AM,30.0,25.2,82,30.13,5.0,West,8.1,-,0.00,,Haze,260,2012-12-11 14:56:00
10:56 AM,30.0,24.1,79,30.14,5.0,West,5.8,-,0.00,,Haze,260,2012-12-11 15:56:00
11:56 AM,30.0,23.0,75,30.15,5.0,WSW,9.2,-,0.00,,Overcast,250,2012-12-11 16:56:00
12:39 PM,30.2,23.0,75,30.11,5.0,WSW,11.5,-,0.00,,Haze,240,2012-12-11 17:39:00
12:56 PM,30.0,23.0,75,30.14,5.0,WSW,10.4,-,0.00,,Haze,240,2012-12-11 17:56:00
1:56 PM,30.0,23.0,75,30.15,5.0,SSW,12.7,-,N/A,,Haze,210,2012-12-11 18:56:00
2:56 PM,30.0,22.1,72,30.15,6.0,WSW,13.8,-,N/A,,Haze,240,2012-12-11 19:56:00
3:56 PM,30.0,21.0,69,30.16,6.0,WSW,9.2,-,N/A,,Haze,240,2012-12-11 20:56:00
4:56 PM,30.0,20.1,67,30.18,6.0,SSW,8.1,-,N/A,,Haze,210,2012-12-11 21:56:00
5:45 PM,28.4,19.4,69,30.15,7.0,SW,6.9,-,N/A,,Scattered Clouds,220,2012-12-11 22:45:00
5:56 PM,28.0,20.1,72,30.19,7.0,SW,4.6,-,N/A,,Clear,220,2012-12-11 22:56:00
6:56 PM,27.1,19.0,72,30.20,7.0,South,4.6,-,N/A,,Clear,190,2012-12-11 23:56:00
7:56 PM,26.1,19.0,75,30.22,7.0,South,3.5,-,N/A,,Clear,190,2012-12-12 00:56:00
8:56 PM,25.2,19.0,78,30.24,7.0,South,3.5,-,N/A,,Clear,180,2012-12-12 01:56:00
11:56 PM,24.1,19.0,81,30.27,7.0,South,4.6,-,N/A,,Clear,190,2012-12-12 04:56:00